Regional Weather Roundup
Issued by NWS Jackson, KY

Home | Current Version | Previous Version | Text Only | Print | Product List | Glossary On
Versions: 1 2 3 4 5 6 7 8 9 10 11 12 13 14 15 16 17 18 19 20 21 22 23 24 25 26 27 28 29 30 31 32 33 34 35 36 37 38 39 40 41 42 43 44 45 46 47 48 49 50
000
ASUS43 KJKL 231319
RWRJKL

EAST KENTUCKY HOURLY WEATHER ROUNDUP
NATIONAL WEATHER SERVICE JACKSON KY
900 AM EDT WED APR 23 2014

NOTE: "FAIR" INDICATES FEW OR NO CLOUDS BELOW 12,000 FEET WITH
NO SIGNIFICANT WEATHER AND/OR OBSTRUCTIONS TO VISIBILITY.

* THESE REPORTS ARE NOT UNDER NWS QUALITY CONTROL AND MAY NOT
  REPORT WEATHER SUCH AS PRECIPITATION AND FOG.

KYZ079-080-083-085-087-088-110-112-115-119-120-231400
...EASTERN KENTUCKY...

CITY           SKY/WX    TMP DP  RH WIND       PRES   REMARKS
JACKSON        SUNNY     46  28  49 VRB3      30.04R
LONDON         SUNNY     49  30  48 VRB6      30.06R
SOMERSET*      SUNNY     46  32  57 NE7       30.09R
MIDDLESBORO*   SUNNY     49  29  45 N7        30.05R
HARLAN APT*    SUNNY     48  27  43 NW9G16    30.03R
BLACK MTN*       N/A     36  25  64 VRB8        N/A  WCI  29
PIKEVILLE APT* SUNNY     43  28  56 NW9       30.02R
BIG SANDY*     SUNNY     45  31  59 N6        30.04R
ASHLAND*       SUNNY     46  32  57 N7        30.05R
MOREHEAD APT*  SUNNY    N/A N/A N/A N7        30.08R
$$

KYZ035-036-041-042-044-050-067-078-099-231400
...CENTRAL KENTUCKY...

CITY           SKY/WX    TMP DP  RH WIND       PRES   REMARKS
MT STERLING*   SUNNY     45  32  61 NE9       30.08R
FLEMING/MASON* SUNNY     43  30  61 N9        30.08R
DANVILLE*      SUNNY     45  34  65 N6        30.08
RICHMOND*      SUNNY     45  32  61 N7        30.06S
LEXINGTON      SUNNY     46  34  62 N10       30.07R
FRANKFORT      SUNNY     44  31  60 N8        30.08R
$$

KYZ091>093-OHZ055-061-077-WVZ005-015-034-035-042-231400
...SOUTHERN OHIO/WEST VIRGINIA...

CITY           SKY/WX    TMP DP  RH WIND       PRES   REMARKS
COVINGTON      SUNNY     42  30  62 N12       30.08R
COLUMBUS       MOSUNNY   43  30  60 NW8       30.05R
DAYTON         SUNNY     41  30  65 N12       30.09R
WILMINGTON     SUNNY     41  29  62 N13       30.06R
HUNTINGTON     SUNNY     45  31  58 N7        30.04R
CHARLESTON     MOSUNNY   46  33  60 NW10G17   30.01R
PINEVILLE*     MOSUNNY   47  35  64 MISG      30.03S
BECKLEY        PTSUNNY   40  30  67 W15       29.95R WCI  32
BLUEFIELD      MOSUNNY   44  30  57 NW10G20   29.94R
$$

VAZ002-007-008-TNZ017-027-036-066-071-231400
...SOUTHWEST VIRGINIA/EAST TENNESSEE...

CITY           SKY/WX    TMP DP  RH WIND       PRES   REMARKS
WISE*          SUNNY     41  28  60 N7        30.00R
ABINGDON*      SUNNY     48  29  48 W8        29.98R
BRISTOL        SUNNY     51  25  36 W3        29.99R
KNOXVILLE      MOSUNNY   53  34  48 NE9       30.03R
OAK RIDGE      SUNNY     53  31  42 NE8       30.05R
CROSSVILLE     SUNNY     48  30  49 NE10      30.04R
NASHVILLE      SUNNY     53  35  50 NE9       30.08R
$$

...KEY TO REMARKS...
VSB - VISIBILITY IN MILES
WCI - WIND CHILL INDEX
HX  - HEAT INDEX

$$



USA.gov is the U.S. government's official web portal to all federal, state and local government web resources and services.